Previsão horária em Barroquinha

Hoje, 20 Outubro, Terça-feira

Tempo Temperatura Precipitação Vento Pressão Humidade
00:00 +25°C° 0 mm 4 m/s 755 mmHg 81%
01:00 +25°C° 0 mm 4 m/s 755 mmHg 83%
02:00 +25°C° 0 mm 4 m/s 755 mmHg 86%
03:00 +25°C° 0 mm 4 m/s 755 mmHg 90%
04:00 +25°C° 0 mm 5 m/s 755 mmHg 86%
05:00 +26°C° 0 mm 5 m/s 755 mmHg 82%
06:00 +27°C° 0 mm 6 m/s 756 mmHg 78%
07:00 +29°C° 0 mm 6 m/s 756 mmHg 68%
08:00 +32°C° 0 mm 5 m/s 757 mmHg 58%
09:00 +35°C° 0 mm 5 m/s 757 mmHg 47%
10:00 +36°C° 0 mm 5 m/s 756 mmHg 41%
11:00 +39°C° 0 mm 5 m/s 756 mmHg 35%
12:00 +41°C° 0 mm 5 m/s 755 mmHg 29%
13:00 +40°C° 0 mm 6 m/s 755 mmHg 33%
14:00 +39°C° 0 mm 6 m/s 754 mmHg 38%
15:00 +38°C° 0 mm 7 m/s 754 mmHg 42%
16:00 +35°C° 0 mm 6 m/s 754 mmHg 50%
17:00 +33°C° 0 mm 6 m/s 754 mmHg 57%
18:00 +30°C° 0 mm 6 m/s 754 mmHg 64%
19:00 +28°C° 0 mm 5 m/s 755 mmHg 67%
20:00 +27°C° 0 mm 4 m/s 755 mmHg 71%
21:00 +26°C° 0 mm 4 m/s 756 mmHg 74%
22:00 +26°C° 0 mm 4 m/s 756 mmHg 76%
23:00 +26°C° 0 mm 4 m/s 756 mmHg 78%

Amanhã, 21 Outubro, Quarta-feira

Tempo Temperatura Precipitação Vento Pressão Humidade
00:00 +25°C° 0 mm 4 m/s 756 mmHg 80%
01:00 +26°C° 0 mm 5 m/s 756 mmHg 80%
02:00 +26°C° 0 mm 5 m/s 755 mmHg 80%
03:00 +26°C° 0 mm 5 m/s 755 mmHg 81%
04:00 +26°C° 0 mm 5 m/s 756 mmHg 79%
05:00 +26°C° 0 mm 5 m/s 756 mmHg 78%
06:00 +26°C° 0 mm 5 m/s 757 mmHg 77%
07:00 +29°C° 0 mm 5 m/s 757 mmHg 67%
08:00 +32°C° 0 mm 5 m/s 757 mmHg 56%
09:00 +34°C° 0 mm 5 m/s 758 mmHg 46%
10:00 +36°C° 0 mm 5 m/s 757 mmHg 40%
11:00 +39°C° 0 mm 5 m/s 756 mmHg 34%
12:00 +41°C° 0 mm 5 m/s 756 mmHg 28%
13:00 +40°C° 0 mm 5 m/s 755 mmHg 31%
14:00 +40°C° 0 mm 6 m/s 754 mmHg 34%
15:00 +39°C° 0 mm 6 m/s 754 mmHg 37%
16:00 +35°C° 0 mm 6 m/s 754 mmHg 46%
17:00 +33°C° 0 mm 6 m/s 754 mmHg 55%
18:00 +30°C° 0 mm 6 m/s 755 mmHg 64%
19:00 +29°C° 0 mm 5 m/s 755 mmHg 67%
20:00 +28°C° 0 mm 5 m/s 756 mmHg 70%
21:00 +27°C° 0 mm 4 m/s 756 mmHg 73%
22:00 +27°C° 0 mm 4 m/s 756 mmHg 76%
23:00 +26°C° 0 mm 4 m/s 756 mmHg 78%

Depois de amanhã, 22 Outubro, Quinta-feira

Tempo Temperatura Precipitação Vento Pressão Humidade
00:00 +26°C° 0 mm 4 m/s 756 mmHg 81%
01:00 +26°C° 0 mm 5 m/s 755 mmHg 81%
02:00 +26°C° 0 mm 5 m/s 755 mmHg 82%
03:00 +27°C° 0 mm 5 m/s 754 mmHg 82%
04:00 +27°C° 0 mm 5 m/s 755 mmHg 80%
05:00 +28°C° 0 mm 5 m/s 755 mmHg 77%
06:00 +28°C° 0 mm 5 m/s 756 mmHg 75%
07:00 +30°C° 0 mm 5 m/s 756 mmHg 67%
08:00 +33°C° 0 mm 5 m/s 756 mmHg 59%
09:00 +34°C° 0 mm 5 m/s 757 mmHg 51%
10:00 +36°C° 0 mm 5 m/s 756 mmHg 45%
11:00 +39°C° 0 mm 6 m/s 756 mmHg 39%
12:00 +41°C° 0 mm 6 m/s 755 mmHg 33%
13:00 +39°C° 0 mm 6 m/s 755 mmHg 38%
14:00 +38°C° 0 mm 7 m/s 754 mmHg 43%
15:00 +36°C° 0 mm 7 m/s 753 mmHg 47%
16:00 +34°C° 0 mm 7 m/s 754 mmHg 53%
17:00 +33°C° 0 mm 7 m/s 754 mmHg 59%
18:00 +30°C° 0 mm 6 m/s 755 mmHg 65%
19:00 +29°C° 0 mm 5 m/s 755 mmHg 69%
20:00 +29°C° 0 mm 5 m/s 756 mmHg 72%
21:00 +28°C° 0 mm 4 m/s 756 mmHg 76%
22:00 +27°C° 0 mm 4 m/s 756 mmHg 79%
23:00 +27°C° 0 mm 4 m/s 756 mmHg 82%

23 Outubro, Sexta-feira

Tempo Temperatura Precipitação Vento Pressão Humidade
00:00 +26°C° 0 mm 4 m/s 756 mmHg 84%
01:00 +26°C° 0 mm 4 m/s 755 mmHg 85%
02:00 +26°C° 0 mm 5 m/s 755 mmHg 87%
03:00 +25°C° 0 mm 5 m/s 754 mmHg 88%
04:00 +26°C° 0 mm 5 m/s 755 mmHg 85%
05:00 +26°C° 0 mm 5 m/s 755 mmHg 83%
06:00 +27°C° 0 mm 5 m/s 756 mmHg 81%
07:00 +28°C° 0 mm 5 m/s 756 mmHg 72%
08:00 +30°C° 0 mm 5 m/s 757 mmHg 64%
09:00 +33°C° 0 mm 5 m/s 757 mmHg 55%
10:00 +35°C° 0 mm 5 m/s 756 mmHg 50%
11:00 +36°C° 0 mm 5 m/s 756 mmHg 45%
12:00 +39°C° 0 mm 5 m/s 755 mmHg 40%
13:00 +37°C° 0 mm 5 m/s 755 mmHg 43%
14:00 +36°C° 0 mm 6 m/s 754 mmHg 46%
15:00 +36°C° 0 mm 6 m/s 753 mmHg 49%
16:00 +34°C° 0 mm 6 m/s 754 mmHg 55%
17:00 +32°C° 0 mm 6 m/s 754 mmHg 61%
18:00 +30°C° 0 mm 5 m/s 754 mmHg 67%
19:00 +29°C° 0 mm 5 m/s 755 mmHg 71%
20:00 +28°C° 0 mm 5 m/s 755 mmHg 74%
21:00 +27°C° 0 mm 4 m/s 756 mmHg 78%
22:00 +27°C° 0 mm 4 m/s 756 mmHg 82%
23:00 +26°C° 0 mm 4 m/s 755 mmHg 85%

24 Outubro, Sábado

Tempo Temperatura Precipitação Vento Pressão Humidade
00:00 +25°C° 0 mm 4 m/s 755 mmHg 89%
01:00 +25°C° 0 mm 4 m/s 755 mmHg 88%
02:00 +26°C° 0 mm 4 m/s 754 mmHg 88%
03:00 +26°C° 0 mm 4 m/s 754 mmHg 88%
04:00 +26°C° 0 mm 4 m/s 755 mmHg 85%
05:00 +27°C° 0 mm 5 m/s 755 mmHg 81%
06:00 +27°C° 0 mm 5 m/s 755 mmHg 78%
07:00 +29°C° 0 mm 5 m/s 756 mmHg 68%
08:00 +32°C° 0 mm 5 m/s 756 mmHg 59%
09:00 +34°C° 0 mm 5 m/s 757 mmHg 49%
10:00 +36°C° 0 mm 5 m/s 756 mmHg 44%
11:00 +39°C° 0 mm 5 m/s 755 mmHg 39%
12:00 +40°C° 0 mm 5 m/s 755 mmHg 34%
13:00 +39°C° 0 mm 5 m/s 754 mmHg 38%
14:00 +38°C° 0 mm 6 m/s 754 mmHg 42%
15:00 +36°C° 0 mm 6 m/s 753 mmHg 46%
16:00 +34°C° 0 mm 6 m/s 753 mmHg 52%
17:00 +33°C° 0 mm 6 m/s 753 mmHg 58%
18:00 +30°C° 0 mm 6 m/s 754 mmHg 65%
19:00 +29°C° 0 mm 5 m/s 754 mmHg 68%
20:00 +28°C° 0 mm 5 m/s 754 mmHg 72%
21:00 +28°C° 0 mm 4 m/s 755 mmHg 76%
22:00 +27°C° 0 mm 4 m/s 754 mmHg 78%
23:00 +26°C° 0 mm 4 m/s 754 mmHg 81%

25 Outubro, Domingo

Tempo Temperatura Precipitação Vento Pressão Humidade
00:00 +26°C° 0 mm 4 m/s 754 mmHg 83%
01:00 +26°C° 0 mm 4 m/s 753 mmHg 86%
02:00 +26°C° 0 mm 4 m/s 753 mmHg 88%
03:00 +25°C° 0 mm 4 m/s 753 mmHg 90%
04:00 +26°C° 0 mm 4 m/s 753 mmHg 88%
05:00 +26°C° 0 mm 4 m/s 754 mmHg 87%
06:00 +26°C° 0 mm 4 m/s 754 mmHg 85%
07:00 +29°C° 0 mm 4 m/s 755 mmHg 73%
08:00 +32°C° 0 mm 4 m/s 755 mmHg 61%
09:00 +35°C° 0 mm 4 m/s 756 mmHg 48%
10:00 +37°C° 0 mm 5 m/s 755 mmHg 43%
11:00 +39°C° 0 mm 5 m/s 754 mmHg 38%
12:00 +41°C° 0 mm 5 m/s 754 mmHg 33%
13:00 +40°C° 0 mm 6 m/s 753 mmHg 37%
14:00 +39°C° 0 mm 6 m/s 753 mmHg 41%
15:00 +36°C° 0 mm 7 m/s 752 mmHg 46%
16:00 +35°C° 0 mm 7 m/s 752 mmHg 52%
17:00 +33°C° 0 mm 6 m/s 752 mmHg 58%
18:00 +30°C° 0 mm 6 m/s 753 mmHg 63%
19:00 +29°C° 0 mm 5 m/s 753 mmHg 67%
20:00 +29°C° 0 mm 5 m/s 754 mmHg 71%
21:00 +28°C° 0 mm 4 m/s 754 mmHg 75%
22:00 +27°C° 0 mm 4 m/s 754 mmHg 78%
23:00 +26°C° 0 mm 4 m/s 754 mmHg 81%

26 Outubro, Segunda-feira

Tempo Temperatura Precipitação Vento Pressão Humidade
00:00 +26°C° 0 mm 4 m/s 754 mmHg 84%
01:00 +26°C° 0 mm 4 m/s 754 mmHg 86%
02:00 +25°C° 0 mm 4 m/s 753 mmHg 88%
03:00 +25°C° 0 mm 4 m/s 753 mmHg 90%
04:00 +25°C° 0 mm 4 m/s 753 mmHg 89%
05:00 +25°C° 0 mm 4 m/s 754 mmHg 88%
06:00 +26°C° 0 mm 4 m/s 754 mmHg 86%
07:00 +28°C° 0 mm 4 m/s 754 mmHg 75%
08:00 +32°C° 0 mm 4 m/s 755 mmHg 63%
09:00 +34°C° 0 mm 5 m/s 755 mmHg 51%
10:00 +36°C° 0 mm 5 m/s 754 mmHg 46%
11:00 +39°C° 0 mm 5 m/s 754 mmHg 41%
12:00 +41°C° 0 mm 5 m/s 753 mmHg 36%
13:00 +39°C° 0 mm 6 m/s 753 mmHg 40%
14:00 +38°C° 0 mm 7 m/s 752 mmHg 44%
15:00 +36°C° 0 mm 7 m/s 751 mmHg 48%
16:00 +34°C° 0 mm 7 m/s 752 mmHg 56%
17:00 +32°C° 0 mm 6 m/s 752 mmHg 65%
18:00 +29°C° 0 mm 5 m/s 753 mmHg 73%
19:00 +29°C° 0 mm 5 m/s 753 mmHg 77%
20:00 +28°C° 0 mm 4 m/s 754 mmHg 80%
21:00 +28°C° 0 mm 4 m/s 755 mmHg 83%
22:00 +27°C° 0 mm 3 m/s 755 mmHg 84%
23:00 +27°C° 0 mm 3 m/s 754 mmHg 84%
Mostrar mais